小惑星A/2019 U6

A/2019 U6

English version
Home page
Updated on January 25, 2020

---------------------------------------------------------------------

・ プロフィール

発見日 2019年10月31日
発見光度 20.5等
発見者 Mt. Lemmon Survey

・ 軌道要素

Epoch 2020 May 31.0 TT = JDT 2459000.5
T 2020 June 18.82289 TT                                 Williams
q   0.9142547            (2000.0)            P               Q
z  +0.0023092      Peri.  329.66033     -0.68858232     +0.06104899
 +/-0.0000021      Node   235.70591     -0.35184855     -0.89942475
e   0.9978888      Incl.   61.00160     -0.63407964     +0.43279111
H   14.5
From 67 observations 2018 Nov. 6-2020 Jan. 6, mean residual 0".4.

・ 星図

・ 光度変化

        H = 14.5  G = 0.15                [    ,-250]  (              〜2019年10月12日)
        m1 = 14.5 + 5 logΔ + 10.0 log r  [-250,    ]  (2019年10月12日〜              )

---------------------------------------------------------------------

軌道要素はM.P.E.C. 2020-A105に掲載されたものです。
星図はステラナビゲータ Ver.10 (アストロアーツ) で作成したものです。
光度グラフはComet for Windowsで作成したものです。

---------------------------------------------------------------------

Copyright(C) Seiichi Yoshida (comet@aerith.net). All rights reserved.